|
NORAD ID: 20087 Int'l Code: 1981-053MP
Perigee: 920.2 km
Apogee: 1,089.1 km
Inclination: 83.0 °
Period: 105.1 minutes
Semi major axis: 7375 km
Launch date: June 4, 1981
Source: Commonwealth of Independent States (former USSR) (CIS)
Note: This is SATELLITE DEBRIS
Two Line Element Set (TLE):
1 20087U 81053MP 13167.35556185 .00000562 00000-0 58842-3 0 6260
2 20087 082.9937 028.4621 0114527 053.9605 359.8767 13.70573931202297
Source:
NASA's NSSDC Master Catalog entry for COSMOS 1275 DEB
|